Regional Weather Roundup
Issued by NWS Northern Indiana

Home | Current Version | Previous Version | Graphics & Text | Print | Product List | Glossary On
Versions: 1 2 3 4 5 6 7 8 9 10 11 12 13 14 15 16 17 18 19 20 21 22 23 24 25 26 27 28 29 30 31 32 33 34 35 36 37 38 39 40 41 42 43 44 45 46 47 48 49 50
489
ASUS43 KIWX 171510
RWRIWX

KIWX WEATHER ROUNDUP
NATIONAL WEATHER SERVICE NORTHERN INDIANA
1100 AM EDT TUE OCT 17 2017

NOTE: "FAIR" INDICATES FEW OR NO CLOUDS BELOW 12,000 FEET WITH NO
SIGNIFICANT WEATHER AND/OR OBSTRUCTIONS TO VISIBILITY.

* THESE STATIONS ARE NOT UNDER NWS QUALITY CONTROL. THEY ALSO MAY NOT
  REPORT WEATHER SUCH AS PRECIPITATION OR FOG.

INZ001>027-171600-
NORTHERN INDIANA

CITY           SKY/WX    TMP DP  RH WIND       PRES   REMARKS
GARY*          MOSUNNY   57  39  51 SW12      30.23S
VALPARAISO     SUNNY     58  43  57 S13       30.25F
MICHIGAN CITY* SUNNY     55  43  62 SW9G16    30.24R
LAPORTE*       SUNNY     55  42  62 SW16      30.24F
KNOX*          SUNNY     55  41  58 SW14G20   30.26S
SOUTH BEND     SUNNY     55  42  61 SW17      30.25R
ELKHART*       SUNNY     55  41  58 SW9       30.24S
GOSHEN         SUNNY     56  40  55 SW15G23   30.25F
MONTICELLO*    SUNNY     57  37  47 SW16G22   30.30S
LOGANSPORT*    SUNNY     55  41  58 SW16      30.31F
WARSAW*        SUNNY     55  37  50 SW10G21   30.27F
AUBURN*        SUNNY     55  37  50 SW12G17   30.28S
FORT WAYNE     MOSUNNY   58  38  47 SW18      30.30F
HUNTINGTON*    SUNNY     57  37  47 SW15G23   30.30S
PERU/GRISSOM   SUNNY     58  40  50 SW18      30.30
MARION*        SUNNY     57  41  54 SW16G24   30.33S

$$
INZ028>050-171600-
CENTRAL INDIANA

CITY           SKY/WX    TMP DP  RH WIND       PRES   REMARKS
KOKOMO*        SUNNY     59  39  47 SW18      30.32S
MUNCIE*        SUNNY     60  38  43 SW9G18    30.33S
INDIANAPOLIS   MOSUNNY   56  42  59 SW9       30.36S

$$
MIZ043>046-050>051-056>058-064>065-071>073-077>080-171600-
SOUTHWEST LOWER MICHIGAN

CITY           SKY/WX    TMP DP  RH WIND       PRES   REMARKS
BATTLE CREEK   SUNNY     56  41  57 SW20G25   30.21S
BENTON HARBOR  SUNNY     59  42  53 SW9       30.21S
COLDWATER*     SUNNY     56  39  53 SW14G20   30.24S
HILLSDALE*     SUNNY     55  39  54 SW9G16    30.23S
HOLLAND        SUNNY     60  48  64 SW23G32   30.16S
GRAND RAPIDS   PTSUNNY   59  43  55 SW23G29   30.15S
KALAMAZOO      SUNNY     57  39  51 SW13G20   30.22S
STURGIS*       SUNNY     55  42  60 SW14      30.24S
THREE RIVERS*  FAIR      57  41  55 SW9       30.24S

$$
OHZ001>008-015>018-024>025-171600-
NORTHWEST OHIO

CITY           SKY/WX    TMP DP  RH WIND       PRES   REMARKS
WAUSEON*       FAIR      59  41  51 SW14G22   30.26S
DEFIANCE       SUNNY     57  39  51 MISG      30.28S
FINDLAY        SUNNY     59  39  47 SW16      30.29F
TOLEDO EXPRESS SUNNY     58  42  55 SW15G23   30.26F
TOLEDO METCALF SUNNY     57  41  55 SW15G23   30.27F
LIMA           SUNNY     57  39  51 SW16      30.31F

$$
AND FOR LAKE MICHIGAN COASTAL AND OPEN LAKE BUOY OBSERVATIONS

STATION/POSITION TEMP    WIND        PRES    VSBY  WAVE
                 AIR SEA DIR/SP/G                  HT/PER
                 (F)     (DEG/KT/KT) (MB)    (MI)  (FT/S)
CALUMET HARBOR    58     210/  9/ 16 1022.3F
MICHIGAN CITY     56     190/ 18/ 22   N/A
BURNS HARBOR      57     210/ 14/ 18 1023.7F
SAINT JOSEPH      56     210/ 17/ 23 1023.4
SOUTH LAKE BUOY   59 61  260/ 23/ 25 1020.5R         5/ 6
4 MI NW BRIDGMAN  56 56  230/ 16/ 19 1023.7          4/ 5
MICHIGAN CITY     56 57  220/ 16/ 21   N/A           3/ 4

$$
&&




USA.gov is the U.S. government's official web portal to all federal, state and local government web resources and services.